Weather History for Orlando International, FL

Change the Weather History Date:

Thursday, October 9, 2014

  Actual Average Record
Temperature  
Mean Temperature 80 °F 77 °F  
Max Temperature 88 °F 86 °F 95 °F (1922)
Min Temperature 71 °F 68 °F 50 °F (1921)
Degree Days  
Heating Degree Days 0 0  
Month to date heating degree days 0 0  
Since 1 July heating degree days 0 0  
Cooling Degree Days 15 12  
Month to date cooling degree days 116 118  
Year to date cooling degree days 3191 2994  
Growing Degree Days 30 (Base 50)    
Moisture  
Dew Point 70 °F    
Average Humidity 72    
Maximum Humidity 93    
Minimum Humidity 50    
Precipitation  
Precipitation 0.00 in 0.12 in 2.74 in (1900)
Month to date precipitation 0.58 1.26  
Year to date precipitation 48.82 43.93  
Sea Level Pressure  
Sea Level Pressure 30.08 in    
Wind  
Wind Speed 7 mph (NE)    
Max Wind Speed 16 mph    
Max Gust Speed 21 mph    
Visibility 10 miles    
Events Fog    
T = Trace of Precipitation, MM = Missing Value Source: NWS Daily Summary

Daily Weather History Graph

Daily Weather History Graph

Search for Another Location

Airport:

Trip Planner

Search our weather history database for the weather conditions in past years. The results will help you decide how hot, cold, wet, or windy it might be!

Date:

Astronomy

Oct. 09, 2014 Rise Set
Actual Time 7:22 AM EDT 7:02 PM EDT
Civil Twilight 6:58 AM EDT 7:25 PM EDT
Nautical Twilight 6:31 AM EDT 7:52 PM EDT
Astronomical Twilight 6:04 AM EDT 8:20 PM EDT
Moon 8:05 PM EDT (10/9) 8:29 AM EDT (10/9)
Length of Visible Light 12h 26m
Length of Day
11h 39m
Full, 98% of the Moon is Illuminated
Oct 9
Full
Oct 15
Last Quarter
Oct 23
New
Oct 30
First Quarter
Nov 6
Full

Hourly Weather History & Observations

Time (EDT) Temp. Heat Index Dew Point Humidity Pressure Visibility Wind Dir Wind Speed Gust Speed Precip Events Conditions
12:53 AM 72.0 °F - 70.0 °F 93% 30.10 in 10.0 mi Calm Calm - N/A   Clear
1:53 AM 73.0 °F - 69.1 °F 87% 30.10 in 10.0 mi Calm Calm - N/A   Clear
2:53 AM 72.0 °F - 70.0 °F 93% 30.09 in 10.0 mi Calm Calm - N/A   Clear
3:53 AM 71.1 °F - 70.0 °F 96% 30.08 in 10.0 mi North 3.5 mph - N/A   Clear
4:53 AM 71.1 °F - 70.0 °F 96% 30.08 in 10.0 mi North 3.5 mph - N/A   Clear
5:53 AM 71.1 °F - 70.0 °F 96% 30.09 in 10.0 mi North 3.5 mph - N/A   Clear
6:53 AM 71.1 °F - 70.0 °F 96% 30.10 in 10.0 mi North 3.5 mph - N/A   Clear
7:53 AM 72.0 °F - 70.0 °F 93% 30.11 in 10.0 mi NNW 3.5 mph - N/A Fog Patches of Fog
8:53 AM 75.9 °F - 72.0 °F 87% 30.12 in 10.0 mi North 4.6 mph - N/A   Partly Cloudy
9:53 AM 81.0 °F 84.9 °F 71.1 °F 72% 30.13 in 10.0 mi North 3.5 mph - N/A   Partly Cloudy
10:53 AM 82.9 °F 87.0 °F 70.0 °F 65% 30.12 in 10.0 mi NE 9.2 mph - N/A   Scattered Clouds
11:53 AM 84.9 °F 88.8 °F 69.1 °F 59% 30.11 in 10.0 mi NE 12.7 mph - N/A   Scattered Clouds
12:53 PM 86.0 °F 88.8 °F 66.9 °F 53% 30.09 in 10.0 mi NE 13.8 mph 20.7 mph N/A   Scattered Clouds
1:53 PM 88.0 °F 90.7 °F 66.9 °F 49% 30.07 in 10.0 mi East 11.5 mph - N/A   Scattered Clouds
2:53 PM 87.1 °F 89.9 °F 66.9 °F 51% 30.05 in 10.0 mi East 9.2 mph - N/A   Mostly Cloudy
3:53 PM 86.0 °F 89.4 °F 68.0 °F 55% 30.04 in 10.0 mi East 11.5 mph - N/A   Mostly Cloudy
4:53 PM 84.9 °F 88.2 °F 68.0 °F 57% 30.04 in 10.0 mi East 10.4 mph - N/A   Mostly Cloudy
5:53 PM 84.0 °F 87.8 °F 69.1 °F 61% 30.04 in 10.0 mi ENE 12.7 mph - N/A   Mostly Cloudy
6:53 PM 80.1 °F 83.2 °F 70.0 °F 71% 30.05 in 10.0 mi ENE 9.2 mph - N/A   Mostly Cloudy
7:53 PM 79.0 °F - 71.1 °F 77% 30.06 in 10.0 mi ENE 9.2 mph - N/A   Scattered Clouds
8:53 PM 78.1 °F - 72.0 °F 81% 30.06 in 10.0 mi NE 9.2 mph - N/A   Partly Cloudy
9:53 PM 77.0 °F - 72.0 °F 84% 30.08 in 10.0 mi NE 8.1 mph - N/A   Partly Cloudy
10:53 PM 75.9 °F - 72.0 °F 87% 30.09 in 10.0 mi NNE 6.9 mph - N/A   Partly Cloudy
11:53 PM 75.0 °F - 72.0 °F 90% 30.09 in 10.0 mi NNE 5.8 mph - N/A   Partly Cloudy